Time,TemperatureF,DewpointF,PressureIn,WindDirection,WindDirectionDegrees,WindSpeedMPH,WindSpeedGustMPH,Humidity,HourlyPrecipIn,Conditions,Clouds,dailyrainin,SoftwareType,DateUTC
2013-09-13 00:01:00,59.0,52.2,29.88,NNW,338,6.0,10.0,78,0.00,,---,0.00,VWS V14.01,2013-09-13 04:01:00,
2013-09-13 00:02:00,59.0,52.2,29.87,North,0,5.0,10.0,78,0.00,,---,0.00,VWS V14.01,2013-09-13 04:02:00,
2013-09-13 00:04:00,59.0,52.2,29.87,NNW,338,6.0,10.0,78,0.00,,---,0.00,VWS V14.01,2013-09-13 04:04:00,
2013-09-13 00:09:00,59.0,52.2,29.88,North,0,3.0,10.0,78,0.00,,---,0.00,VWS V14.01,2013-09-13 04:09:00,
2013-09-13 00:14:00,60.0,53.5,29.88,NNW,338,3.0,10.0,79,0.00,,---,0.00,VWS V14.01,2013-09-13 04:14:00,
2013-09-13 00:19:00,59.0,52.2,29.87,North,0,5.0,10.0,78,0.00,,---,0.00,VWS V14.01,2013-09-13 04:19:00,
2013-09-13 00:24:00,59.0,52.2,29.88,NNW,338,1.0,6.0,78,0.00,,---,0.00,VWS V14.01,2013-09-13 04:24:00,
2013-09-13 00:30:00,59.0,52.2,29.88,WSW,248,4.0,6.0,78,0.00,,---,0.00,VWS V14.01,2013-09-13 04:30:00,
2013-09-13 00:35:00,59.0,52.2,29.88,NW,315,2.0,6.0,78,0.00,,---,0.00,VWS V14.01,2013-09-13 04:35:00,
2013-09-13 00:40:00,59.0,52.2,29.87,WNW,292,1.0,3.0,78,0.00,,---,0.00,VWS V14.01,2013-09-13 04:40:00,
2013-09-13 00:45:00,59.0,52.2,29.87,NNW,338,1.0,5.0,78,0.00,,---,0.00,VWS V14.01,2013-09-13 04:45:00,
2013-09-13 00:50:00,59.0,52.5,29.87,WNW,292,4.0,5.0,79,0.00,,---,0.00,VWS V14.01,2013-09-13 04:50:00,
2013-09-13 00:55:00,59.0,52.2,29.87,NNW,338,3.0,7.0,78,0.00,,---,0.00,VWS V14.01,2013-09-13 04:55:00,
2013-09-13 01:00:00,59.0,52.5,29.87,NNW,338,2.0,5.0,79,0.00,,---,0.00,VWS V14.01,2013-09-13 05:00:00,
2013-09-13 01:06:00,59.0,52.5,29.86,NNE,22,2.0,6.0,79,0.00,,---,0.00,VWS V14.01,2013-09-13 05:06:00,
2013-09-13 01:11:00,59.0,52.5,29.85,NNW,338,3.0,6.0,79,0.00,,---,0.00,VWS V14.01,2013-09-13 05:11:00,
2013-09-13 01:16:00,59.0,52.5,29.85,NNW,338,5.0,6.0,79,0.00,,---,0.00,VWS V14.01,2013-09-13 05:16:00,
2013-09-13 01:21:00,59.0,52.8,29.85,North,0,5.0,5.0,80,0.00,,---,0.00,VWS V14.01,2013-09-13 05:21:00,
2013-09-13 01:26:00,59.0,52.8,29.85,NNE,22,3.0,8.0,80,0.00,,---,0.00,VWS V14.01,2013-09-13 05:26:00,
2013-09-13 01:31:00,59.0,53.2,29.84,NE,45,2.0,8.0,81,0.00,,---,0.00,VWS V14.01,2013-09-13 05:31:00,
2013-09-13 01:36:00,59.0,53.5,29.85,NW,315,1.0,8.0,82,0.00,,---,0.00,VWS V14.01,2013-09-13 05:36:00,
2013-09-13 01:41:00,59.0,53.5,29.86,WNW,292,1.0,3.0,82,0.00,,---,0.00,VWS V14.01,2013-09-13 05:41:00,
2013-09-13 01:47:00,59.0,53.8,29.87,NNW,338,2.0,6.0,83,0.00,,---,0.00,VWS V14.01,2013-09-13 05:47:00,
2013-09-13 01:52:00,59.0,53.8,29.87,WNW,292,3.0,6.0,83,0.00,,---,0.00,VWS V14.01,2013-09-13 05:52:00,
2013-09-13 01:57:00,59.0,54.2,29.87,NW,315,3.0,7.0,84,0.00,,---,0.00,VWS V14.01,2013-09-13 05:57:00,
2013-09-13 02:02:00,59.0,54.2,29.88,NW,315,2.0,8.0,84,0.00,,---,0.00,VWS V14.01,2013-09-13 06:02:00,
2013-09-13 02:07:00,59.0,54.5,29.88,NNE,22,2.0,8.0,85,0.00,,---,0.00,VWS V14.01,2013-09-13 06:07:00,
2013-09-13 02:12:00,59.0,54.5,29.87,West,270,3.0,8.0,85,0.00,,---,0.00,VWS V14.01,2013-09-13 06:12:00,
2013-09-13 02:17:00,59.0,54.5,29.86,WNW,292,1.0,8.0,85,0.00,,---,0.00,VWS V14.01,2013-09-13 06:17:00,
2013-09-13 02:22:00,59.0,54.8,29.85,NNW,338,5.0,8.0,86,0.00,,---,0.00,VWS V14.01,2013-09-13 06:22:00,
2013-09-13 02:27:00,59.0,55.1,29.85,North,0,4.0,8.0,87,0.00,,---,0.00,VWS V14.01,2013-09-13 06:27:00,
2013-09-13 02:33:00,59.0,55.1,29.85,North,0,2.0,8.0,87,0.00,,---,0.00,VWS V14.01,2013-09-13 06:33:00,
2013-09-13 02:38:00,58.0,54.2,29.86,NNW,338,3.0,10.0,87,0.00,,---,0.00,VWS V14.01,2013-09-13 06:38:00,
2013-09-13 02:43:00,59.0,55.5,29.87,North,0,4.0,13.0,88,0.00,,---,0.00,VWS V14.01,2013-09-13 06:43:00,
2013-09-13 02:48:00,58.0,54.2,29.87,NNW,338,6.0,13.0,87,0.00,,---,0.00,VWS V14.01,2013-09-13 06:48:00,
2013-09-13 02:53:00,58.0,54.2,29.87,North,0,2.0,13.0,87,0.00,,---,0.00,VWS V14.01,2013-09-13 06:53:00,
2013-09-13 02:58:00,58.0,54.5,29.87,WNW,292,1.0,13.0,88,0.01,,---,0.01,VWS V14.01,2013-09-13 06:58:00,
2013-09-13 03:03:00,58.0,54.8,29.87,WNW,292,3.0,11.0,89,0.07,,---,0.07,VWS V14.01,2013-09-13 07:03:00,
2013-09-13 03:08:00,58.0,54.8,29.86,NNW,338,2.0,11.0,89,0.08,,---,0.08,VWS V14.01,2013-09-13 07:08:00,
2013-09-13 03:13:00,58.0,55.1,29.86,North,0,3.0,11.0,90,0.09,,---,0.09,VWS V14.01,2013-09-13 07:13:00,
2013-09-13 03:18:00,57.0,54.4,29.86,NNW,338,3.0,11.0,91,0.09,,---,0.09,VWS V14.01,2013-09-13 07:18:00,
2013-09-13 03:24:00,57.0,54.7,29.86,NNW,338,3.0,10.0,92,0.09,,---,0.09,VWS V14.01,2013-09-13 07:24:00,
2013-09-13 03:29:00,57.0,54.7,29.86,NNW,338,1.0,10.0,92,0.09,,---,0.09,VWS V14.01,2013-09-13 07:29:00,
2013-09-13 03:34:00,57.0,54.7,29.86,West,270,1.0,10.0,92,0.09,,---,0.09,VWS V14.01,2013-09-13 07:34:00,
2013-09-13 03:39:00,57.0,55.0,29.86,NW,315,3.0,10.0,93,0.10,,---,0.10,VWS V14.01,2013-09-13 07:39:00,
2013-09-13 03:44:00,57.0,55.0,29.86,NNW,338,5.0,6.0,93,0.10,,---,0.10,VWS V14.01,2013-09-13 07:44:00,
2013-09-13 03:49:00,57.0,55.0,29.86,NNW,338,3.0,7.0,93,0.10,,---,0.10,VWS V14.01,2013-09-13 07:49:00,
2013-09-13 03:54:00,57.0,55.0,29.86,WNW,292,2.0,10.0,93,0.10,,---,0.10,VWS V14.01,2013-09-13 07:54:00,
2013-09-13 03:59:00,57.0,55.0,29.86,SSW,202,1.0,10.0,93,0.10,,---,0.10,VWS V14.01,2013-09-13 07:59:00,
2013-09-13 04:04:00,57.0,55.3,29.86,NNW,338,6.0,8.0,94,0.08,,---,0.10,VWS V14.01,2013-09-13 08:04:00,
2013-09-13 04:09:00,57.0,55.0,29.86,NNW,338,3.0,8.0,93,0.08,,---,0.10,VWS V14.01,2013-09-13 08:09:00,
2013-09-13 04:14:00,57.0,55.0,29.86,NW,315,3.0,8.0,93,0.08,,---,0.10,VWS V14.01,2013-09-13 08:14:00,
2013-09-13 04:20:00,57.0,55.0,29.86,NNW,338,4.0,7.0,93,0.01,,---,0.10,VWS V14.01,2013-09-13 08:20:00,
2013-09-13 04:25:00,56.0,54.3,29.86,NNW,338,5.0,8.0,94,0.01,,---,0.10,VWS V14.01,2013-09-13 08:25:00,
2013-09-13 04:30:00,56.0,54.0,29.86,North,0,0.0,8.0,93,0.01,,---,0.10,VWS V14.01,2013-09-13 08:30:00,
2013-09-13 04:35:00,56.0,54.0,29.86,NNW,338,3.0,8.0,93,0.01,,---,0.10,VWS V14.01,2013-09-13 08:35:00,
2013-09-13 04:40:00,56.0,54.0,29.86,ENE,68,6.0,6.0,93,0.00,,---,0.10,VWS V14.01,2013-09-13 08:40:00,
2013-09-13 04:45:00,56.0,54.0,29.86,NNW,338,4.0,6.0,93,0.00,,---,0.10,VWS V14.01,2013-09-13 08:45:00,
2013-09-13 04:50:00,56.0,54.0,29.86,NNE,22,1.0,6.0,93,0.00,,---,0.10,VWS V14.01,2013-09-13 08:50:00,
2013-09-13 04:55:00,56.0,54.0,29.86,NNW,338,5.0,6.0,93,0.00,,---,0.10,VWS V14.01,2013-09-13 08:55:00,
2013-09-13 05:00:00,56.0,54.0,29.86,North,0,1.0,3.0,93,0.00,,---,0.10,VWS V14.01,2013-09-13 09:00:00,
2013-09-13 05:05:00,56.0,54.0,29.86,NNW,338,6.0,6.0,93,0.00,,---,0.10,VWS V14.01,2013-09-13 09:05:00,
2013-09-13 05:10:00,56.0,54.0,29.86,NNW,338,1.0,6.0,93,0.00,,---,0.10,VWS V14.01,2013-09-13 09:10:00,
2013-09-13 05:15:00,56.0,54.3,29.86,NNW,338,3.0,6.0,94,0.00,,---,0.10,VWS V14.01,2013-09-13 09:15:00,
2013-09-13 05:20:00,56.0,54.0,29.86,NNW,338,5.0,6.0,93,0.00,,---,0.10,VWS V14.01,2013-09-13 09:20:00,
2013-09-13 05:25:00,56.0,54.0,29.86,NNW,338,3.0,10.0,93,0.00,,---,0.10,VWS V14.01,2013-09-13 09:25:00,
2013-09-13 05:30:00,56.0,54.0,29.86,NW,315,4.0,11.0,93,0.00,,---,0.10,VWS V14.01,2013-09-13 09:30:00,
2013-09-13 05:36:00,56.0,54.0,29.86,NNW,338,6.0,11.0,93,0.00,,---,0.10,VWS V14.01,2013-09-13 09:36:00,
2013-09-13 05:41:00,56.0,54.0,29.86,NW,315,4.0,6.0,93,0.00,,---,0.10,VWS V14.01,2013-09-13 09:41:00,
2013-09-13 05:46:00,56.0,54.0,29.87,NNW,338,8.0,10.0,93,0.00,,---,0.10,VWS V14.01,2013-09-13 09:46:00,
2013-09-13 05:51:00,56.0,53.7,29.87,NNE,22,3.0,10.0,92,0.00,,---,0.10,VWS V14.01,2013-09-13 09:51:00,
2013-09-13 05:56:00,56.0,53.7,29.87,NNE,22,5.0,10.0,92,0.00,,---,0.10,VWS V14.01,2013-09-13 09:56:00,
2013-09-13 06:01:00,56.0,53.7,29.87,NE,45,2.0,6.0,92,0.00,,---,0.10,VWS V14.01,2013-09-13 10:01:00,
2013-09-13 06:06:00,55.0,52.4,29.87,North,0,5.0,11.0,91,0.00,,---,0.10,VWS V14.01,2013-09-13 10:06:00,
2013-09-13 06:11:00,55.0,52.4,29.87,North,0,5.0,11.0,91,0.00,,---,0.10,VWS V14.01,2013-09-13 10:11:00,
2013-09-13 06:16:00,56.0,53.4,29.87,ENE,68,3.0,11.0,91,0.00,,---,0.10,VWS V14.01,2013-09-13 10:16:00,
2013-09-13 06:21:00,55.0,52.4,29.87,NE,45,2.0,7.0,91,0.00,,---,0.10,VWS V14.01,2013-09-13 10:21:00,
2013-09-13 06:26:00,55.0,52.4,29.87,NE,45,3.0,8.0,91,0.00,,---,0.10,VWS V14.01,2013-09-13 10:26:00,
2013-09-13 06:32:00,55.0,52.4,29.88,NNW,338,3.0,8.0,91,0.01,,---,0.11,VWS V14.01,2013-09-13 10:32:00,
2013-09-13 06:37:00,55.0,52.4,29.87,North,0,3.0,8.0,91,0.01,,---,0.11,VWS V14.01,2013-09-13 10:37:00,
2013-09-13 06:42:00,55.0,52.4,29.88,NE,45,5.0,10.0,91,0.01,,---,0.11,VWS V14.01,2013-09-13 10:42:00,
2013-09-13 06:47:00,55.0,52.4,29.88,ENE,68,4.0,10.0,91,0.01,,---,0.11,VWS V14.01,2013-09-13 10:47:00,
2013-09-13 06:52:00,55.0,52.7,29.88,ENE,68,3.0,10.0,92,0.01,,---,0.11,VWS V14.01,2013-09-13 10:52:00,
2013-09-13 06:57:00,55.0,52.4,29.89,NE,45,5.0,10.0,91,0.01,,---,0.11,VWS V14.01,2013-09-13 10:57:00,
2013-09-13 07:02:00,55.0,52.4,29.89,North,0,2.0,8.0,91,0.01,,---,0.11,VWS V14.01,2013-09-13 11:02:00,
2013-09-13 07:07:00,54.0,51.1,29.89,NNE,22,5.0,9.0,90,0.01,,---,0.11,VWS V14.01,2013-09-13 11:07:00,
2013-09-13 07:12:00,55.0,52.1,29.89,NNE,22,2.0,9.0,90,0.01,,---,0.11,VWS V14.01,2013-09-13 11:12:00,
2013-09-13 07:17:00,54.0,50.8,29.89,NNW,338,3.0,13.0,89,0.01,,---,0.11,VWS V14.01,2013-09-13 11:17:00,
2013-09-13 07:22:00,54.0,50.8,29.90,NNE,22,6.0,11.0,89,0.01,,---,0.11,VWS V14.01,2013-09-13 11:22:00,
2013-09-13 07:27:00,55.0,51.8,29.90,WNW,292,2.0,11.0,89,0.01,,---,0.11,VWS V14.01,2013-09-13 11:27:00,
2013-09-13 07:33:00,54.0,50.8,29.90,NW,315,3.0,11.0,89,0.01,,---,0.11,VWS V14.01,2013-09-13 11:33:00,
2013-09-13 07:38:00,54.0,50.8,29.90,North,0,4.0,11.0,89,0.01,,---,0.11,VWS V14.01,2013-09-13 11:38:00,
2013-09-13 07:43:00,54.0,50.8,29.91,NNW,338,5.0,6.0,89,0.00,,---,0.11,VWS V14.01,2013-09-13 11:43:00,
2013-09-13 07:48:00,54.0,51.1,29.91,North,0,3.0,11.0,90,0.00,,---,0.11,VWS V14.01,2013-09-13 11:48:00,
2013-09-13 07:53:00,54.0,51.4,29.91,NNE,22,4.0,11.0,91,0.00,,---,0.11,VWS V14.01,2013-09-13 11:53:00,
2013-09-13 07:58:00,54.0,51.4,29.90,NNW,338,2.0,11.0,91,0.00,,---,0.11,VWS V14.01,2013-09-13 11:58:00,
2013-09-13 08:03:00,54.0,51.4,29.90,North,0,4.0,6.0,91,0.00,,---,0.11,VWS V14.01,2013-09-13 12:03:00,
2013-09-13 08:08:00,54.0,51.4,29.91,North,0,6.0,10.0,91,0.00,,---,0.11,VWS V14.01,2013-09-13 12:08:00,
2013-09-13 08:13:00,54.0,51.4,29.91,West,270,1.0,10.0,91,0.00,,---,0.11,VWS V14.01,2013-09-13 12:13:00,
2013-09-13 08:18:00,54.0,51.4,29.91,NW,315,3.0,13.0,91,0.00,,---,0.11,VWS V14.01,2013-09-13 12:18:00,
2013-09-13 08:23:00,54.0,51.4,29.91,North,0,1.0,9.0,91,0.00,,---,0.11,VWS V14.01,2013-09-13 12:23:00,
2013-09-13 08:29:00,54.0,51.1,29.91,North,0,1.0,11.0,90,0.00,,---,0.11,VWS V14.01,2013-09-13 12:29:00,
2013-09-13 08:34:00,54.0,51.1,29.91,North,0,7.0,11.0,90,0.00,,---,0.11,VWS V14.01,2013-09-13 12:34:00,
2013-09-13 08:39:00,54.0,50.8,29.91,NNW,338,8.0,13.0,89,0.00,,---,0.11,VWS V14.01,2013-09-13 12:39:00,
2013-09-13 08:44:00,54.0,50.2,29.91,NNW,338,5.0,10.0,87,0.00,,---,0.11,VWS V14.01,2013-09-13 12:44:00,
2013-09-13 08:49:00,54.0,50.5,29.91,NNW,338,3.0,10.0,88,0.00,,---,0.11,VWS V14.01,2013-09-13 12:49:00,
2013-09-13 08:54:00,54.0,50.2,29.91,NNW,338,3.0,10.0,87,0.00,,---,0.11,VWS V14.01,2013-09-13 12:54:00,
2013-09-13 08:59:00,54.0,50.5,29.92,NNW,338,5.0,10.0,88,0.00,,---,0.11,VWS V14.01,2013-09-13 12:59:00,
2013-09-13 09:04:00,54.0,50.5,29.92,NNW,338,3.0,12.0,88,0.00,,---,0.11,VWS V14.01,2013-09-13 13:04:00,
2013-09-13 09:09:00,54.0,50.5,29.92,NNE,22,5.0,12.0,88,0.00,,---,0.11,VWS V14.01,2013-09-13 13:09:00,
2013-09-13 09:14:00,54.0,50.2,29.92,North,0,8.0,13.0,87,0.00,,---,0.11,VWS V14.01,2013-09-13 13:14:00,
2013-09-13 09:19:00,54.0,50.2,29.92,NNW,338,7.0,13.0,87,0.00,,---,0.11,VWS V14.01,2013-09-13 13:19:00,
2013-09-13 09:24:00,54.0,50.5,29.93,NNW,338,5.0,10.0,88,0.00,,---,0.11,VWS V14.01,2013-09-13 13:24:00,
2013-09-13 09:30:00,54.0,49.9,29.93,NNW,338,6.0,14.0,86,0.00,,---,0.11,VWS V14.01,2013-09-13 13:30:00,
2013-09-13 09:35:00,54.0,49.9,29.93,ENE,68,4.0,14.0,86,0.00,,---,0.11,VWS V14.01,2013-09-13 13:35:00,
2013-09-13 09:40:00,54.0,49.9,29.93,NNW,338,6.0,6.0,86,0.00,,---,0.11,VWS V14.01,2013-09-13 13:40:00,
2013-09-13 09:45:00,54.0,49.9,29.93,North,0,4.0,11.0,86,0.00,,---,0.11,VWS V14.01,2013-09-13 13:45:00,
2013-09-13 09:50:00,54.0,49.9,29.93,NNW,338,6.0,11.0,86,0.00,,---,0.11,VWS V14.01,2013-09-13 13:50:00,
2013-09-13 09:55:00,54.0,49.9,29.93,North,0,7.0,11.0,86,0.00,,---,0.11,VWS V14.01,2013-09-13 13:55:00,
2013-09-13 10:00:00,54.0,49.9,29.93,NE,45,3.0,7.0,86,0.00,,---,0.11,VWS V14.01,2013-09-13 14:00:00,
2013-09-13 10:05:00,54.0,49.6,29.93,NNW,338,3.0,10.0,85,0.00,,---,0.11,VWS V14.01,2013-09-13 14:05:00,
2013-09-13 10:10:00,54.0,49.6,29.94,North,0,3.0,10.0,85,0.00,,---,0.11,VWS V14.01,2013-09-13 14:10:00,
2013-09-13 10:15:00,54.0,49.3,29.94,NNW,338,8.0,11.0,84,0.00,,---,0.11,VWS V14.01,2013-09-13 14:15:00,
2013-09-13 10:20:00,55.0,50.3,29.94,NNE,22,3.0,11.0,84,0.00,,---,0.11,VWS V14.01,2013-09-13 14:20:00,
2013-09-13 10:25:00,55.0,50.3,29.94,NNW,338,6.0,11.0,84,0.00,,---,0.11,VWS V14.01,2013-09-13 14:25:00,
2013-09-13 10:31:00,55.0,49.6,29.94,North,0,3.0,13.0,82,0.00,,---,0.11,VWS V14.01,2013-09-13 14:31:00,
2013-09-13 10:36:00,55.0,49.9,29.94,WNW,292,3.0,13.0,83,0.00,,---,0.11,VWS V14.01,2013-09-13 14:36:00,
2013-09-13 10:41:00,55.0,49.0,29.94,North,0,6.0,10.0,80,0.00,,---,0.11,VWS V14.01,2013-09-13 14:41:00,
2013-09-13 10:46:00,55.0,49.0,29.94,WSW,248,3.0,10.0,80,0.00,,---,0.11,VWS V14.01,2013-09-13 14:46:00,
2013-09-13 10:51:00,55.0,49.3,29.94,West,270,2.0,10.0,81,0.00,,---,0.11,VWS V14.01,2013-09-13 14:51:00,
2013-09-13 10:56:00,55.0,49.6,29.94,NW,315,3.0,10.0,82,0.00,,---,0.11,VWS V14.01,2013-09-13 14:56:00,
2013-09-13 11:01:00,55.0,48.6,29.94,NNW,338,5.0,11.0,79,0.00,,---,0.11,VWS V14.01,2013-09-13 15:01:00,
2013-09-13 11:06:00,55.0,47.9,29.95,NW,315,5.0,13.0,77,0.00,,---,0.11,VWS V14.01,2013-09-13 15:06:00,
2013-09-13 11:11:00,55.0,48.6,29.95,North,0,7.0,13.0,79,0.00,,---,0.11,VWS V14.01,2013-09-13 15:11:00,
2013-09-13 11:17:00,55.0,48.6,29.95,NW,315,6.0,13.0,79,0.00,,---,0.11,VWS V14.01,2013-09-13 15:17:00,
2013-09-13 11:22:00,54.0,47.6,29.95,North,0,8.0,14.0,79,0.00,,---,0.11,VWS V14.01,2013-09-13 15:22:00,
2013-09-13 11:27:00,54.0,47.6,29.95,NNW,338,9.0,16.0,79,0.00,,---,0.11,VWS V14.01,2013-09-13 15:27:00,
2013-09-13 11:32:00,54.0,47.6,29.95,NNW,338,7.0,16.0,79,0.00,,---,0.11,VWS V14.01,2013-09-13 15:32:00,
2013-09-13 11:37:00,54.0,48.0,29.96,NNW,338,4.0,16.0,80,0.00,,---,0.11,VWS V14.01,2013-09-13 15:37:00,
2013-09-13 11:42:00,54.0,47.6,29.96,North,0,6.0,10.0,79,0.00,,---,0.11,VWS V14.01,2013-09-13 15:42:00,
2013-09-13 11:47:00,54.0,48.0,29.96,NW,315,0.0,10.0,80,0.00,,---,0.11,VWS V14.01,2013-09-13 15:47:00,
2013-09-13 11:52:00,54.0,48.0,29.96,NNW,338,3.0,11.0,80,0.00,,---,0.11,VWS V14.01,2013-09-13 15:52:00,
2013-09-13 11:57:00,54.0,48.0,29.96,North,0,6.0,11.0,80,0.00,,---,0.11,VWS V14.01,2013-09-13 15:57:00,
2013-09-13 12:02:00,53.0,47.0,29.96,NNW,338,10.0,11.0,80,0.00,,---,0.11,VWS V14.01,2013-09-13 16:02:00,
2013-09-13 12:07:00,53.0,47.3,29.96,NNE,22,6.0,17.0,81,0.00,,---,0.11,VWS V14.01,2013-09-13 16:07:00,
2013-09-13 12:13:00,53.0,47.3,29.96,NNW,338,4.0,17.0,81,0.00,,---,0.11,VWS V14.01,2013-09-13 16:13:00,
2013-09-13 12:18:00,53.0,47.7,29.97,NNW,338,10.0,17.0,82,0.00,,---,0.11,VWS V14.01,2013-09-13 16:18:00,
2013-09-13 12:23:00,52.0,46.7,29.97,NW,315,6.0,19.0,82,0.00,,---,0.11,VWS V14.01,2013-09-13 16:23:00,
2013-09-13 12:28:00,52.0,46.7,29.97,North,0,11.0,19.0,82,0.00,,---,0.11,VWS V14.01,2013-09-13 16:28:00,
2013-09-13 12:33:00,51.0,45.7,29.97,NW,315,8.0,19.0,82,0.00,,---,0.11,VWS V14.01,2013-09-13 16:33:00,
2013-09-13 12:38:00,51.0,46.0,29.98,NNE,22,5.0,19.0,83,0.00,,---,0.11,VWS V14.01,2013-09-13 16:38:00,
2013-09-13 12:43:00,51.0,46.0,29.97,West,270,2.0,10.0,83,0.00,,---,0.11,VWS V14.01,2013-09-13 16:43:00,
2013-09-13 12:48:00,52.0,46.7,29.98,North,0,6.0,13.0,82,0.00,,---,0.11,VWS V14.01,2013-09-13 16:48:00,
2013-09-13 12:53:00,52.0,46.7,29.97,NNE,22,8.0,14.0,82,0.00,,---,0.11,VWS V14.01,2013-09-13 16:53:00,
2013-09-13 12:58:00,51.0,45.4,29.98,North,0,5.0,14.0,81,0.00,,---,0.11,VWS V14.01,2013-09-13 16:58:00,
2013-09-13 13:03:00,51.0,45.4,29.98,NNW,338,6.0,13.0,81,0.00,,---,0.11,VWS V14.01,2013-09-13 17:03:00,
2013-09-13 13:09:00,51.0,45.7,29.98,West,270,3.0,14.0,82,0.00,,---,0.11,VWS V14.01,2013-09-13 17:09:00,
2013-09-13 13:14:00,51.0,45.7,29.98,NNW,338,4.0,14.0,82,0.00,,---,0.11,VWS V14.01,2013-09-13 17:14:00,
2013-09-13 13:19:00,51.0,45.7,29.98,NNW,338,5.0,14.0,82,0.00,,---,0.11,VWS V14.01,2013-09-13 17:19:00,
2013-09-13 13:24:00,51.0,45.4,29.98,NNW,338,4.0,10.0,81,0.00,,---,0.11,VWS V14.01,2013-09-13 17:24:00,
2013-09-13 13:29:00,51.0,45.1,29.98,North,0,5.0,13.0,80,0.00,,---,0.11,VWS V14.01,2013-09-13 17:29:00,
2013-09-13 13:34:00,51.0,44.7,29.98,North,0,5.0,13.0,79,0.00,,---,0.11,VWS V14.01,2013-09-13 17:34:00,
2013-09-13 13:39:00,52.0,45.7,29.98,North,0,2.0,13.0,79,0.00,,---,0.11,VWS V14.01,2013-09-13 17:39:00,
2013-09-13 13:44:00,52.0,45.0,29.98,NNW,338,11.0,13.0,77,0.00,,---,0.11,VWS V14.01,2013-09-13 17:44:00,
2013-09-13 13:49:00,52.0,45.0,29.98,NNW,338,8.0,14.0,77,0.00,,---,0.11,VWS V14.01,2013-09-13 17:49:00,
2013-09-13 13:54:00,52.0,45.4,29.97,NW,315,0.0,14.0,78,0.00,,---,0.11,VWS V14.01,2013-09-13 17:54:00,
2013-09-13 13:59:00,52.0,45.0,29.98,NW,315,2.0,14.0,77,0.00,,---,0.11,VWS V14.01,2013-09-13 17:59:00,
2013-09-13 14:05:00,53.0,45.7,29.97,NW,315,5.0,11.0,76,0.00,,---,0.11,VWS V14.01,2013-09-13 18:05:00,
2013-09-13 14:10:00,53.0,45.0,29.97,NNW,338,7.0,12.0,74,0.00,,---,0.11,VWS V14.01,2013-09-13 18:10:00,
2013-09-13 14:15:00,53.0,45.3,29.97,NNW,338,4.0,12.0,75,0.00,,---,0.11,VWS V14.01,2013-09-13 18:15:00,
2013-09-13 14:20:00,54.0,45.5,29.97,NNW,338,6.0,6.0,73,0.00,,---,0.11,VWS V14.01,2013-09-13 18:20:00,
2013-09-13 14:25:00,54.0,45.9,29.97,NE,45,8.0,10.0,74,0.00,,---,0.11,VWS V14.01,2013-09-13 18:25:00,
2013-09-13 14:30:00,54.0,46.6,29.97,NNE,22,3.0,13.0,76,0.00,,---,0.11,VWS V14.01,2013-09-13 18:30:00,
2013-09-13 14:35:00,54.0,46.3,29.97,NW,315,5.0,14.0,75,0.00,,---,0.11,VWS V14.01,2013-09-13 18:35:00,
2013-09-13 14:40:00,55.0,47.2,29.97,NNW,338,8.0,10.0,75,0.00,,---,0.11,VWS V14.01,2013-09-13 18:40:00,
2013-09-13 14:45:00,54.0,45.9,29.97,NE,45,5.0,13.0,74,0.00,,---,0.11,VWS V14.01,2013-09-13 18:45:00,
2013-09-13 14:50:00,54.0,45.9,29.97,NNW,338,10.0,14.0,74,0.00,,---,0.11,VWS V14.01,2013-09-13 18:50:00,
2013-09-13 14:55:00,53.0,44.2,29.97,NW,315,5.0,18.0,72,0.00,,---,0.11,VWS V14.01,2013-09-13 18:55:00,
2013-09-13 15:01:00,53.0,45.0,29.97,North,0,5.0,10.0,74,0.00,,---,0.11,VWS V14.01,2013-09-13 19:01:00,
2013-09-13 15:06:00,53.0,44.2,29.97,North,0,6.0,11.0,72,0.00,,---,0.11,VWS V14.01,2013-09-13 19:06:00,
2013-09-13 15:11:00,53.0,45.3,29.97,NNW,338,5.0,11.0,75,0.00,,---,0.11,VWS V14.01,2013-09-13 19:11:00,
2013-09-13 15:16:00,53.0,45.3,29.98,NNE,22,5.0,13.0,75,0.00,,---,0.11,VWS V14.01,2013-09-13 19:16:00,
2013-09-13 15:21:00,53.0,45.3,29.98,ENE,68,4.0,11.0,75,0.00,,---,0.11,VWS V14.01,2013-09-13 19:21:00,
2013-09-13 15:26:00,53.0,45.7,29.98,North,0,6.0,11.0,76,0.00,,---,0.11,VWS V14.01,2013-09-13 19:26:00,
2013-09-13 15:31:00,53.0,45.7,29.98,NW,315,8.0,13.0,76,0.00,,---,0.11,VWS V14.01,2013-09-13 19:31:00,
2013-09-13 15:36:00,52.0,44.0,29.98,North,0,6.0,14.0,74,0.00,,---,0.11,VWS V14.01,2013-09-13 19:36:00,
2013-09-13 15:41:00,52.0,45.0,29.98,NNW,338,7.0,9.0,77,0.00,,---,0.11,VWS V14.01,2013-09-13 19:41:00,
2013-09-13 15:46:00,52.0,45.0,29.98,NNE,22,5.0,9.0,77,0.00,,---,0.11,VWS V14.01,2013-09-13 19:46:00,
2013-09-13 15:51:00,52.0,45.0,29.98,NNE,22,5.0,9.0,77,0.00,,---,0.11,VWS V14.01,2013-09-13 19:51:00,
2013-09-13 15:57:00,52.0,44.7,29.98,NW,315,5.0,12.0,76,0.00,,---,0.11,VWS V14.01,2013-09-13 19:57:00,
2013-09-13 16:02:00,52.0,44.7,29.98,NW,315,5.0,10.0,76,0.00,,---,0.11,VWS V14.01,2013-09-13 20:02:00,
2013-09-13 16:07:00,52.0,44.3,29.98,North,0,6.0,10.0,75,0.00,,---,0.11,VWS V14.01,2013-09-13 20:07:00,
2013-09-13 16:12:00,52.0,44.3,29.99,North,0,5.0,11.0,75,0.00,,---,0.11,VWS V14.01,2013-09-13 20:12:00,
2013-09-13 16:17:00,52.0,44.3,29.99,SW,225,5.0,13.0,75,0.00,,---,0.11,VWS V14.01,2013-09-13 20:17:00,
2013-09-13 16:22:00,51.0,43.7,29.99,NNW,338,6.0,14.0,76,0.00,,---,0.11,VWS V14.01,2013-09-13 20:22:00,
2013-09-13 16:27:00,51.0,43.7,29.99,North,0,3.0,14.0,76,0.00,,---,0.11,VWS V14.01,2013-09-13 20:27:00,
2013-09-13 16:32:00,51.0,44.0,29.99,NNW,338,6.0,14.0,77,0.00,,---,0.11,VWS V14.01,2013-09-13 20:32:00,
2013-09-13 16:37:00,51.0,44.0,29.99,North,0,3.0,16.0,77,0.00,,---,0.11,VWS V14.01,2013-09-13 20:37:00,
2013-09-13 16:42:00,51.0,44.0,30.00,NNW,338,8.0,11.0,77,0.00,,---,0.11,VWS V14.01,2013-09-13 20:42:00,
2013-09-13 16:48:00,51.0,44.0,30.00,NNE,22,5.0,12.0,77,0.00,,---,0.11,VWS V14.01,2013-09-13 20:48:00,
2013-09-13 16:53:00,51.0,44.4,30.00,NW,315,4.0,13.0,78,0.00,,---,0.11,VWS V14.01,2013-09-13 20:53:00,
2013-09-13 16:58:00,51.0,44.4,30.00,NNW,338,3.0,13.0,78,0.00,,---,0.11,VWS V14.01,2013-09-13 20:58:00,
2013-09-13 17:03:00,51.0,44.4,30.00,North,0,3.0,11.0,78,0.00,,---,0.11,VWS V14.01,2013-09-13 21:03:00,
2013-09-13 17:08:00,50.0,43.4,30.00,NNW,338,3.0,13.0,78,0.00,,---,0.11,VWS V14.01,2013-09-13 21:08:00,
2013-09-13 17:13:00,51.0,44.7,30.00,NNW,338,6.0,13.0,79,0.00,,---,0.11,VWS V14.01,2013-09-13 21:13:00,
2013-09-13 17:18:00,50.0,43.8,30.00,NW,315,1.0,13.0,79,0.00,,---,0.11,VWS V14.01,2013-09-13 21:18:00,
2013-09-13 17:23:00,51.0,44.4,30.01,NNW,338,7.0,10.0,78,0.00,,---,0.11,VWS V14.01,2013-09-13 21:23:00,
2013-09-13 17:28:00,51.0,44.4,30.01,NNW,338,6.0,10.0,78,0.00,,---,0.11,VWS V14.01,2013-09-13 21:28:00,
2013-09-13 17:33:00,51.0,44.0,30.01,NNE,22,3.0,10.0,77,0.00,,---,0.11,VWS V14.01,2013-09-13 21:33:00,
2013-09-13 17:39:00,51.0,44.0,30.01,NNW,338,8.0,10.0,77,0.00,,---,0.11,VWS V14.01,2013-09-13 21:39:00,
2013-09-13 17:44:00,51.0,44.0,30.01,WNW,292,5.0,11.0,77,0.00,,---,0.11,VWS V14.01,2013-09-13 21:44:00,
2013-09-13 17:49:00,51.0,43.7,30.01,NNW,338,6.0,13.0,76,0.00,,---,0.11,VWS V14.01,2013-09-13 21:49:00,
2013-09-13 17:54:00,51.0,44.4,30.01,NNW,338,6.0,13.0,78,0.00,,---,0.11,VWS V14.01,2013-09-13 21:54:00,
2013-09-13 17:59:00,51.0,44.0,30.02,NNW,338,6.0,13.0,77,0.00,,---,0.11,VWS V14.01,2013-09-13 21:59:00,
2013-09-13 18:04:00,51.0,44.0,30.02,North,0,5.0,11.0,77,0.00,,---,0.11,VWS V14.01,2013-09-13 22:04:00,
2013-09-13 18:09:00,51.0,44.0,30.02,North,0,3.0,13.0,77,0.00,,---,0.11,VWS V14.01,2013-09-13 22:09:00,
2013-09-13 18:14:00,50.0,43.1,30.02,North,0,8.0,13.0,77,0.00,,---,0.11,VWS V14.01,2013-09-13 22:14:00,
2013-09-13 18:19:00,51.0,44.4,30.02,NNW,338,3.0,3.0,78,0.00,,---,0.11,VWS V14.01,2013-09-13 22:19:00,
2013-09-13 18:25:00,50.0,43.1,30.02,NNE,22,5.0,11.0,77,0.00,,---,0.11,VWS V14.01,2013-09-13 22:25:00,
2013-09-13 18:30:00,50.0,43.4,30.02,NNW,338,3.0,11.0,78,0.00,,---,0.11,VWS V14.01,2013-09-13 22:30:00,
2013-09-13 18:35:00,50.0,43.1,30.02,North,0,7.0,14.0,77,0.00,,---,0.11,VWS V14.01,2013-09-13 22:35:00,
2013-09-13 18:40:00,50.0,43.4,30.02,NE,45,4.0,5.0,78,0.00,,---,0.11,VWS V14.01,2013-09-13 22:40:00,
2013-09-13 18:45:00,50.0,43.8,30.02,North,0,6.0,10.0,79,0.00,,---,0.11,VWS V14.01,2013-09-13 22:45:00,
2013-09-13 18:50:00,50.0,43.4,30.02,NE,45,3.0,10.0,78,0.00,,---,0.11,VWS V14.01,2013-09-13 22:50:00,
2013-09-13 18:55:00,50.0,43.8,30.03,North,0,4.0,10.0,79,0.00,,---,0.11,VWS V14.01,2013-09-13 22:55:00,
2013-09-13 19:00:00,50.0,43.8,30.03,NNW,338,8.0,10.0,79,0.00,,---,0.11,VWS V14.01,2013-09-13 23:00:00,
2013-09-13 19:06:00,50.0,44.1,30.02,ENE,68,2.0,10.0,80,0.00,,---,0.11,VWS V14.01,2013-09-13 23:06:00,
2013-09-13 19:11:00,50.0,44.1,30.03,North,0,5.0,11.0,80,0.00,,---,0.11,VWS V14.01,2013-09-13 23:11:00,
2013-09-13 19:16:00,50.0,44.1,30.03,NE,45,5.0,11.0,80,0.00,,---,0.11,VWS V14.01,2013-09-13 23:16:00,
2013-09-13 19:21:00,50.0,44.1,30.03,NNE,22,3.0,9.0,80,0.00,,---,0.11,VWS V14.01,2013-09-13 23:21:00,
2013-09-13 19:26:00,50.0,44.1,30.04,NW,315,7.0,10.0,80,0.00,,---,0.11,VWS V14.01,2013-09-13 23:26:00,
2013-09-13 19:31:00,50.0,44.1,30.04,NNE,22,6.0,11.0,80,0.00,,---,0.11,VWS V14.01,2013-09-13 23:31:00,
2013-09-13 19:36:00,50.0,44.1,30.04,NNW,338,5.0,11.0,80,0.00,,---,0.11,VWS V14.01,2013-09-13 23:36:00,
2013-09-13 19:41:00,50.0,44.1,30.04,NE,45,1.0,8.0,80,0.00,,---,0.11,VWS V14.01,2013-09-13 23:41:00,
2013-09-13 19:46:00,49.0,43.1,30.04,ENE,68,5.0,11.0,80,0.00,,---,0.11,VWS V14.01,2013-09-13 23:46:00,
2013-09-13 19:51:00,49.0,43.4,30.04,NNE,22,3.0,11.0,81,0.00,,---,0.11,VWS V14.01,2013-09-13 23:51:00,
2013-09-13 19:57:00,50.0,44.4,30.04,NE,45,5.0,11.0,81,0.00,,---,0.11,VWS V14.01,2013-09-13 23:57:00,
2013-09-13 20:02:00,50.0,44.7,30.04,NNE,22,1.0,8.0,82,0.00,,---,0.11,VWS V14.01,2013-09-14 00:02:00,
2013-09-13 20:07:00,49.0,43.1,30.04,NNW,338,5.0,10.0,80,0.00,,---,0.11,VWS V14.01,2013-09-14 00:07:00,
2013-09-13 20:12:00,49.0,43.4,30.04,NW,315,5.0,10.0,81,0.00,,---,0.11,VWS V14.01,2013-09-14 00:12:00,
2013-09-13 20:17:00,49.0,43.4,30.04,ENE,68,5.0,10.0,81,0.00,,---,0.11,VWS V14.01,2013-09-14 00:17:00,
2013-09-13 20:22:00,49.0,43.8,30.05,NNE,22,5.0,9.0,82,0.00,,---,0.11,VWS V14.01,2013-09-14 00:22:00,
2013-09-13 20:27:00,49.0,43.8,30.05,NNW,338,4.0,9.0,82,0.00,,---,0.11,VWS V14.01,2013-09-14 00:27:00,
2013-09-13 20:32:00,49.0,44.1,30.05,NNE,22,4.0,9.0,83,0.00,,---,0.11,VWS V14.01,2013-09-14 00:32:00,
2013-09-13 20:37:00,49.0,44.1,30.05,NNE,22,3.0,9.0,83,0.00,,---,0.11,VWS V14.01,2013-09-14 00:37:00,
2013-09-13 20:43:00,49.0,44.1,30.06,NNE,22,2.0,7.0,83,0.00,,---,0.11,VWS V14.01,2013-09-14 00:43:00,
2013-09-13 20:48:00,49.0,44.1,30.06,NNW,338,4.0,12.0,83,0.00,,---,0.11,VWS V14.01,2013-09-14 00:48:00,
2013-09-13 20:53:00,49.0,43.8,30.06,North,0,5.0,12.0,82,0.00,,---,0.11,VWS V14.01,2013-09-14 00:53:00,
2013-09-13 20:58:00,49.0,44.4,30.06,NE,45,6.0,12.0,84,0.00,,---,0.11,VWS V14.01,2013-09-14 00:58:00,
2013-09-13 21:03:00,49.0,44.4,30.06,North,0,3.0,8.0,84,0.00,,---,0.11,VWS V14.01,2013-09-14 01:03:00,
2013-09-13 21:08:00,49.0,44.1,30.06,NNW,338,5.0,10.0,83,0.00,,---,0.11,VWS V14.01,2013-09-14 01:08:00,
2013-09-13 21:13:00,49.0,44.4,30.06,WNW,292,4.0,11.0,84,0.00,,---,0.11,VWS V14.01,2013-09-14 01:13:00,
2013-09-13 21:18:00,49.0,44.4,30.06,ENE,68,4.0,11.0,84,0.00,,---,0.11,VWS V14.01,2013-09-14 01:18:00,
2013-09-13 21:23:00,49.0,44.7,30.06,NE,45,4.0,11.0,85,0.00,,---,0.11,VWS V14.01,2013-09-14 01:23:00,
2013-09-13 21:28:00,49.0,44.7,30.06,North,0,3.0,11.0,85,0.00,,---,0.11,VWS V14.01,2013-09-14 01:28:00,
2013-09-13 21:33:00,49.0,44.7,30.06,ENE,68,5.0,11.0,85,0.00,,---,0.11,VWS V14.01,2013-09-14 01:33:00,
2013-09-13 21:39:00,49.0,44.7,30.07,NNW,338,6.0,11.0,85,0.00,,---,0.11,VWS V14.01,2013-09-14 01:39:00,
2013-09-13 21:44:00,49.0,44.7,30.07,NNW,338,6.0,8.0,85,0.00,,---,0.11,VWS V14.01,2013-09-14 01:44:00,
2013-09-13 21:49:00,49.0,44.7,30.07,NNE,22,2.0,8.0,85,0.00,,---,0.11,VWS V14.01,2013-09-14 01:49:00,
2013-09-13 21:54:00,49.0,44.7,30.07,ENE,68,3.0,8.0,85,0.00,,---,0.11,VWS V14.01,2013-09-14 01:54:00,
2013-09-13 21:59:00,49.0,44.7,30.07,North,0,8.0,10.0,85,0.00,,---,0.11,VWS V14.01,2013-09-14 01:59:00,
2013-09-13 22:04:00,49.0,45.0,30.07,North,0,0.0,8.0,86,0.00,,---,0.11,VWS V14.01,2013-09-14 02:04:00,
2013-09-13 22:09:00,49.0,45.0,30.07,NE,45,2.0,8.0,86,0.00,,---,0.11,VWS V14.01,2013-09-14 02:09:00,
2013-09-13 22:14:00,48.0,44.0,30.08,NNW,338,6.0,9.0,86,0.00,,---,0.11,VWS V14.01,2013-09-14 02:14:00,
2013-09-13 22:20:00,48.0,44.3,30.08,NNW,338,1.0,6.0,87,0.00,,---,0.11,VWS V14.01,2013-09-14 02:20:00,
2013-09-13 22:25:00,48.0,44.3,30.08,North,0,5.0,9.0,87,0.00,,---,0.11,VWS V14.01,2013-09-14 02:25:00,
2013-09-13 22:30:00,48.0,44.3,30.08,ENE,68,6.0,10.0,87,0.00,,---,0.11,VWS V14.01,2013-09-14 02:30:00,
2013-09-13 22:35:00,48.0,44.0,30.08,North,0,6.0,10.0,86,0.00,,---,0.11,VWS V14.01,2013-09-14 02:35:00,
2013-09-13 22:40:00,48.0,44.0,30.07,NNW,338,2.0,6.0,86,0.00,,---,0.11,VWS V14.01,2013-09-14 02:40:00,
2013-09-13 22:45:00,48.0,43.7,30.08,North,0,3.0,10.0,85,0.00,,---,0.11,VWS V14.01,2013-09-14 02:45:00,
2013-09-13 22:50:00,48.0,43.7,30.08,NNE,22,3.0,10.0,85,0.00,,---,0.11,VWS V14.01,2013-09-14 02:50:00,
2013-09-13 22:55:00,48.0,43.7,30.08,North,0,5.0,10.0,85,0.00,,---,0.11,VWS V14.01,2013-09-14 02:55:00,
2013-09-13 23:00:00,48.0,43.7,30.08,NNE,22,3.0,7.0,85,0.00,,---,0.11,VWS V14.01,2013-09-14 03:00:00,
2013-09-13 23:06:00,48.0,43.7,30.08,NNW,338,4.0,9.0,85,0.00,,---,0.11,VWS V14.01,2013-09-14 03:06:00,
2013-09-13 23:11:00,48.0,43.7,30.07,NE,45,3.0,9.0,85,0.00,,---,0.11,VWS V14.01,2013-09-14 03:11:00,
2013-09-13 23:16:00,48.0,43.7,30.07,NNE,22,3.0,9.0,85,0.00,,---,0.11,VWS V14.01,2013-09-14 03:16:00,
2013-09-13 23:21:00,49.0,44.7,30.07,NW,315,3.0,5.0,85,0.00,,---,0.11,VWS V14.01,2013-09-14 03:21:00,
2013-09-13 23:26:00,49.0,44.7,30.07,North,0,1.0,6.0,85,0.00,,---,0.11,VWS V14.01,2013-09-14 03:26:00,
2013-09-13 23:31:00,48.0,43.7,30.07,NNE,22,5.0,7.0,85,0.00,,---,0.11,VWS V14.01,2013-09-14 03:31:00,
2013-09-13 23:36:00,48.0,43.7,30.07,North,0,4.0,8.0,85,0.00,,---,0.11,VWS V14.01,2013-09-14 03:36:00,
2013-09-13 23:41:00,48.0,43.7,30.07,North,0,4.0,8.0,85,0.00,,---,0.11,VWS V14.01,2013-09-14 03:41:00,
2013-09-13 23:47:00,49.0,44.7,30.07,ENE,68,3.0,8.0,85,0.00,,---,0.11,VWS V14.01,2013-09-14 03:47:00,
2013-09-13 23:52:00,48.0,43.7,30.07,NNE,22,3.0,8.0,85,0.00,,---,0.11,VWS V14.01,2013-09-14 03:52:00,
2013-09-13 23:57:00,48.0,43.7,30.07,NNE,22,6.0,10.0,85,0.00,,---,0.11,VWS V14.01,2013-09-14 03:57:00,